Log in  \/ 
x
x

Montgomery Operations

Montgomery Operations for Plus One Flyers is located at: Gibbs Flying Service, 3717 John J Montgomery Dr, San Diego, CA 92123

We have completed a remodel of the Plus One Flyers office space and now we have a computer room with 3 new computers, 2 new copier/ printers on line. We also have a classroom/ meeting room with no simulators, and the Elite and Redbird sims have moved to the old computer area. 

Come take a look, its really nice and very user friendly.

BE Safe

Dave Eby

Additional info
  • Operations Officer: Dave Eby
  • Phone Number: 619-279-7499
  • E-Mail: myfops@plusoneflyers.org
Comments

People in this conversation

  • Annette Goff

    Kind of miss that link to the NOAA three day weather history. Makes for better flight planning and is a good tool. Just a thought.

Leave your comments

0 Character restriction
Your text should be more than 10 characters
terms and condition.
Special Instructions

None

Montgomery Weather

[source: ADDS]
METAR
KMYF 291453Z 06004KT 10SM CLR 21/M08 A2995 RMK AO2 SLP138 T02111078 53021 $ =
KNKX 291455Z 30004KT 10SM FEW200 22/M08 A2995 RMK AO2 SLP135 T02221078 53023 $ =
TAF
TAF KNKX 2915/3015 VRB05KT 9999 SKC 520207 520909 QNH2995INS FM291830 30012KT 9999 SKC 520009 520909 QNH2994INS TEMPO 2919/3001 32014G24KT FM300330 VRB05KT 9999 SKC 500000 QNH2999INS T30/2921Z T12/3013Z =
SR / SS: 13:02 / 02:29 UTC ( 2017-04-29)

Montgomery Operations Map